Location: Cortos
(40.7190°N, 4.5893°W)
Time: 19:06:16
(UTC+00:00)

Cosmos 2278 Rocket - Pass Details

Date: 05 July 2020
Orbit: 841 x 846 km, 71.0° (Epoch: 05 August)

Event Time Altitude Azimuth Distance (km) Brightness Sun altitude
Rises 21:01:48 0° 351° (N) 3,414 6.3 -11.2°
Reaches altitude 10° 21:05:45 10° 18° (NNE) 2,473 5.0 -11.8°
Maximum altitude 21:08:25 13° 46° (NE) 2,237 4.4 -12.1°
Drops below altitude 10° 21:11:05 10° 75° (ENE) 2,466 4.3 -12.5°
Enters shadow 21:12:55 - 89° (E) 2,844 4.5 -12.7°
